HUMANITY STAR

Last updated on Fri Mar 23 2018 00:18:01 GMT+0000 (Coordinated Universal Time)

1 43168U 18010F 18081.42604271 .28808768 -13411-5 35134-2 0 9997 2 43168 82.8880 78.1866 0005783 272.9878 87.6140 16.36378329 9474

Satellite not in orbit